Flag for Australia Weather past 2 weeks in Wagga Wagga, New South Wales, Australia

Now
79 °F

Passing clouds.


Feels Like: 79 °F
Forecast: 58 / 83 °F
Wind: 9 mph from Northeast

Location: Wagga Airport

Current Time: Mar 31, 2015 at 1:40:21 PM

Latest Report: Mar 31, 2015 at 1:00 PM


Visibility: N/A

Pressure: 30.27 "Hg

Humidity: 32%

Dew point: 46 °F

Location of Wagga WaggaLocation

Historic Weather in Wagga Wagga — Graph

°F

Wagga Wagga temperature yesterday

Maximum temperature yesterday: 79 °F (at 3:00 PM)
Minimum temperature yesterday: 52 °F (at 6:00 AM)
Average temperature yesterday: 64 °F

Past Weeks' High & Low Weather Summary

 TemperatureHumidityPressure
High93 °F (Mar 19, 5:00 PM)93% (Mar 25, 6:00 AM)30.30 "Hg (Mar 25, 6:00 AM)
Low41 °F (Mar 28, 8:00 AM)13% (Mar 20, 5:00 PM)29.59 "Hg (Mar 18, 4:00 AM)
Average66 °F46%30.02 "Hg
* Reported Mar 16 12:00 Noon — Mar 31 12:00 Noon, Wagga Wagga, Weather by CustomWeather, © 2015

Note: Actual official high and low records may vary slightly from our data, if they occured in-between our weather recording intervals... More about our weather records

Advertising

Wagga Wagga weather history for previous 24 hours

 ConditionsComfort  
Time TempWeatherWind HumidityBarometerVisibility
12:00 PM
Tue, Mar 31
77 °FSunny.10 mph34%30.30 "Hg10 mi
11:00 AM73 °FSunny.12 mph38%30.30 "Hg10 mi
10:00 AM68 °FSunny.8 mph35%30.30 "Hg10 mi
9:00 AM61 °FSunny.7 mph45%30.30 "Hg10 mi
8:00 AM55 °FSunny.6 mph55%30.27 "Hg10 mi
7:00 AM54 °FClear.7 mph58%30.24 "Hg10 mi
6:00 AM54 °FClear.8 mph58%30.24 "Hg10 mi
5:00 AM52 °FClear.No wind58%30.24 "HgN/A
4:00 AM52 °FClear.No wind58%30.24 "HgN/A
3:00 AM55 °FClear.6 mph51%30.24 "HgN/A
2:00 AM54 °FClear.6 mph54%30.24 "HgN/A
1:00 AM55 °FClear.No wind51%30.24 "HgN/A
12:00 AM55 °FClear.No wind47%30.24 "HgN/A
11:00 PM
Mon, Mar 30
61 °FClear.6 mph39%30.24 "Hg10 mi
10:00 PM61 °FClear.No wind42%30.24 "Hg10 mi
9:00 PM64 °FClear.No wind34%30.21 "Hg10 mi
8:00 PM64 °FClear.7 mph34%30.21 "Hg10 mi
7:00 PM75 °FSunny.5 mph25%30.18 "Hg10 mi
6:00 PM79 °FPassing clouds.7 mph18%30.18 "HgN/A
5:00 PM77 °FPassing clouds.7 mph21%30.15 "HgN/A
4:00 PM77 °FPassing clouds.6 mph24%30.18 "HgN/A
3:00 PM79 °FSunny.7 mph24%30.18 "Hg10 mi
2:00 PM77 °FSunny.7 mph26%30.21 "HgN/A
1:00 PM75 °FPassing clouds.7 mph27%30.21 "HgN/A
Weather by CustomWeather, © 2015

See weather overviewHow to use our weather pages